Wind_Speed
11 14 16 18 19 18 17 18 18 24 25 24 18 19 15 14 13 14 18 21 18 12 14 24 24 22 25 29 30 29 32 28 27 24 18 25 31 30 31 32 26 30 35 36
12 16 16 18 18 19 19 20 21 20 22 18 14 16 16 13 14 15 18 16 19 18 21 25 25 23 26 30 30 32 32 32 30 28 18 17 28 33 23 36 31 25 33 35
4 7 17 14 4 6 13 16 13 16 18 15 14 16 17 17 18 18 14 20 16 18 22 25 29 30 29 32 34 28 32 33 35 26 22 20 22 25 28 33 29 23 33 35
7 12 4 4 14 14 17 18 16 18 16 12 13 15 17 19 16 16 15 16 18 21 25 31 34 29 31 32 30 27 29 33 36 21 21 25 23 23 27 33 31 24 31 34
3 5 17 19 5 14 18 16 11 9 11 17 19 16 18 16 13 17 20 20 23 28 33 34 34 32 29 34 28 27 32 34 24 26 29 27 25 23 25 28 33 24 29 34
5 5 6 3 18 11 7 15 6 16 21 20 18 14 15 20 20 20 28 27 25 30 33 32 33 30 31 28 29 28 32 24 27 29 32 32 29 26 28 28 31 24 26 34
10 10 10 10 7 13 8 13 21 22 16 17 15 11 19 20 23 28 28 28 32 32 30 34 32 30 28 31 25 26 32 29 29 29 36 37 32 27 25 26 26 27 26 31
5 8 12 2 17 13 18 19 20 14 13 16 19 20 20 19 19 20 24 33 37 31 31 36 31 29 28 26 31 32 29 28 29 33 36 36 31 27 24 20 22 27 25 27
5 6 13 18 18 17 18 12 13 17 19 18 20 21 20 20 22 22 30 34 36 32 30 40 29 27 25 31 32 34 28 29 29 33 35 36 32 24 20 24 23 25 24 25
10 7 12 17 21 15 15 14 17 18 19 19 22 23 26 23 23 22 31 30 33 30 29 31 28 28 25 30 32 33 32 29 30 31 34 34 28 20 25 23 25 23 22 23
13 17 19 13 13 13 17 17 19 19 20 23 25 26 25 23 23 23 30 32 31 29 28 32 30 30 28 30 31 34 31 28 26 26 27 21 16 18 22 26 21 24 25 29
10 11 9 13 13 15 17 18 21 24 23 22 22 24 25 22 26 31 30 33 31 32 33 31 34 29 32 33 35 29 28 23 21 23 22 17 17 8 13 23 25 21 30 32
9 10 8 13 14 19 19 20 18 22 24 24 28 28 30 23 31 37 36 35 33 32 32 35 28 33 31 31 27 28 28 18 21 21 17 13 18 11 11 11 17 32 35 33
13 8 10 12 16 17 21 26 28 28 27 27 30 33 34 30 35 33 32 35 36 34 31 29 31 29 29 28 28 28 22 19 18 17 11 13 9 15 13 16 18 25 36 36
5 7 10 17 18 17 22 25 21 20 20 23 32 30 33 25 24 33 39 37 35 31 30 28 27 27 27 26 24 29 14 15 10 13 12 13 11 15 19 23 22 27 30 31
6 10 11 12 15 16 17 19 19 19 21 23 27 33 37 38 39 39 37 33 23 14 23 23 24 26 24 23 22 17 8 7 5 11 7 14 24 22 24 23 22 22 22 24
9 11 11 12 13 15 16 15 15 18 22 25 31 37 38 36 34 32 33 27 22 21 23 22 21 23 24 22 19 2 4 6 9 20 18 19 22 22 22 21 18 18 18 20
6 7 9 12 13 13 15 19 21 25 22 29 34 35 32 28 21 29 23 23 20 18 17 17 20 22 14 11 14 9 11 11 13 22 23 24 24 24 25 24 22 20 19 21
6 7 12 15 16 16 17 18 21 25 27 28 30 30 33 32 31 32 28 25 20 11 15 11 15 17 14 12 14 17 15 13 16 21 21 23 23 21 21 21 22 19 16 17
5 9 12 15 16 17 17 19 22 22 24 26 29 30 29 32 33 32 25 18 25 25 23 18 18 20 20 20 18 17 18 15 15 17 17 17 17 17 19 20 20 18 15 14
5 8 11 11 14 16 17 18 20 20 23 24 25 26 29 30 32 30 23 8 25 23 23 23 22 22 22 23 24 22 21 18 16 18 18 17 18 18 18 18 18 19 18 18
5 8 9 11 12 14 16 17 18 19 21 22 23 26 28 27 29 28 26 24 26 25 23 22 23 23 23 23 22 22 22 21 20 20 20 20 19 19 19 18 16 17 16 13
7 9 9 9 9 13 15 15 20 19 19 21 19 21 22 22 22 20 12 27 27 26 24 24 24 23 21 22 20 20 21 19 19 20 19 20 20 20 20 20 18 17 16 15
8 9 8 11 10 11 9 15 19 18 18 18 18 20 20 20 21 24 25 25 23 22 21 21 21 20 20 21 20 18 18 16 17 17 17 16 16 16 15 15 13 12 12 11
9 10 8 9 7 9 12 14 16 17 18 16 18 18 19 17 15 20 20 21 21 21 19 18 18 17 17 16 15 15 15 13 13 13 14 13 13 12 12 10 10 9 9 9
9 8 8 11 7 9 12 12 12 14 17 14 17 17 18 17 16 17 18 18 19 19 20 18 16 13 13 14 13 11 10 9 11 12 11 10 11 10 9 8 8 7 7 9
9 8 8 6 8 9 10 10 11 12 14 13 16 16 16 16 16 15 15 17 17 17 16 17 16 14 13 11 9 7 7 8 9 9 9 9 9 8 7 7 6 5 6 8
Wind_Direction
284 300 302 293 289 282 274 276 271 288 279 283 293 316 320 320 342 342 334 318 313 326 318 321 317 318 321 317 313 313 309 304 303 301 311 315 308 311 304 284 272 214 188 189
289 280 276 289 286 284 276 274 273 288 294 305 310 307 315 342 334 327 316 328 323 327 321 319 315 319 316 308 308 308 304 306 299 296 294 322 304 308 300 295 264 222 187 187
261 319 311 287 282 343 312 303 313 311 313 322 339 349 335 330 324 313 326 307 315 318 310 312 315 315 310 308 302 296 301 302 304 297 300 301 297 301 301 292 269 250 189 190
289 308 253 248 325 329 324 316 311 307 323 348 324 314 313 310 304 304 313 316 315 308 311 310 308 309 310 303 305 300 303 301 296 302 312 309 296 280 288 277 279 264 191 191
273 281 284 276 278 334 308 307 308 310 321 314 311 315 302 305 313 315 311 309 301 313 309 306 305 308 314 304 300 309 299 295 308 314 309 306 288 272 275 273 279 256 193 185
266 281 271 279 324 327 338 296 341 331 317 316 322 306 299 311 305 301 298 295 309 305 304 303 303 305 301 307 305 297 303 310 309 309 310 300 289 280 262 259 260 263 189 181
249 255 263 271 6 337 304 296 317 308 302 312 301 290 300 301 299 295 290 309 307 304 299 301 304 304 304 301 300 307 302 305 303 304 304 296 290 271 251 242 249 265 185 173
254 262 268 13 328 320 299 308 304 325 324 307 298 296 297 298 298 303 305 305 301 297 299 300 300 298 296 301 305 304 298 302 298 298 303 294 288 267 236 226 237 257 174 162
219 242 290 309 300 304 301 319 326 318 312 302 300 299 302 301 297 294 293 295 295 289 299 296 297 293 299 300 306 298 303 303 297 296 302 296 292 254 221 208 216 239 171 162
300 257 289 299 293 298 317 318 321 312 302 310 304 302 298 297 299 294 294 292 290 300 297 294 299 304 298 306 306 308 301 304 296 299 299 298 288 230 197 197 206 221 172 159
266 281 283 288 313 344 332 321 310 305 304 302 301 301 302 303 305 304 303 301 302 299 298 295 302 301 308 309 313 302 301 300 291 295 297 305 288 180 187 194 203 205 168 157
272 304 310 321 333 331 314 315 311 308 312 314 310 308 309 304 304 303 299 299 297 296 291 291 296 295 307 303 299 297 302 288 286 292 293 295 303 189 170 183 210 220 163 158
306 319 334 321 317 313 301 309 326 326 317 313 313 309 307 303 303 301 301 296 294 292 294 294 293 301 301 297 296 301 298 279 285 284 286 295 280 186 167 178 204 169 158 154
285 359 327 312 307 328 331 324 321 318 316 317 315 314 310 305 307 305 300 297 295 291 289 290 290 290 291 290 292 304 276 283 286 272 264 274 245 149 160 153 142 123 143 144
354 318 297 318 328 328 329 327 328 323 321 319 315 312 316 313 306 302 298 294 294 292 286 281 285 286 290 290 294 299 291 293 269 267 256 240 166 137 133 123 118 112 112 118
315 316 323 330 324 328 329 322 319 320 320 317 320 322 317 313 309 308 305 300 292 291 293 286 285 286 291 294 294 288 317 327 277 260 222 130 126 123 124 115 110 112 119 126
326 321 331 324 325 320 317 319 318 314 319 323 322 320 319 319 317 318 317 316 305 299 297 297 296 299 294 287 293 229 95 70 49 83 103 114 128 127 124 117 107 114 124 138
314 333 333 317 316 318 317 317 319 323 322 325 324 327 328 328 325 326 330 331 320 309 304 309 309 301 316 273 161 117 113 80 86 90 89 92 98 108 116 122 130 137 142 143
337 325 313 311 315 314 312 321 323 322 329 332 332 333 333 333 335 335 343 337 330 311 315 0 46 55 60 63 136 111 105 96 82 92 95 94 94 99 116 123 120 119 123 124
309 307 308 310 317 320 324 325 327 327 329 339 338 340 340 341 344 344 348 5 18 34 59 61 60 59 66 68 81 106 107 98 97 97 97 97 100 99 100 105 116 127 138 138
282 301 302 311 312 321 326 325 326 329 332 336 341 342 343 345 350 353 5 7 25 40 44 51 54 56 59 61 59 66 72 78 90 93 94 98 98 103 107 108 103 103 110 111
285 292 299 307 315 320 326 325 332 329 331 335 344 346 348 350 355 2 16 21 25 37 45 51 59 61 61 60 59 58 60 63 63 70 78 86 94 94 94 101 100 104 111 112
275 284 293 296 305 310 320 331 318 322 330 336 341 346 350 349 359 1 2 16 31 36 43 49 52 54 55 54 54 56 56 57 60 69 74 78 83 86 87 91 99 105 103 105
273 282 285 294 299 308 319 320 324 331 331 345 346 355 351 354 358 8 7 13 27 30 36 42 47 51 53 55 54 57 62 65 76 79 81 86 91 94 92 93 96 105 104 109
271 274 279 295 297 305 314 320 321 325 334 343 349 355 357 2 2 357 2 11 18 30 31 34 43 48 56 61 59 62 70 68 74 86 88 91 93 96 102 109 113 118 126 134
261 267 271 288 286 306 311 316 311 318 329 338 344 348 355 358 3 6 3 6 15 23 30 30 36 51 52 50 66 63 58 71 84 93 96 103 103 97 98 110 121 115 134 144
253 258 268 289 297 305 307 314 312 305 326 342 334 339 349 352 357 3 5 5 7 9 18 25 34 38 40 43 47 55 65 76 81 95 99 103 105 106 109 101 122 120 109 126
Height
850 846 847 845 842 838 840 837 841 822 818 808 798 795 791 787 785 784 784 781 776 773 770 766 762 757 754 750 744 739 733 727 722 719 715 713 709 702 697 693 691 689 693 700
858 848 844 839 832 829 826 823 818 809 803 800 792 789 787 788 787 786 783 781 776 772 767 761 757 753 749 744 738 734 727 721 715 711 708 704 706 700 693 691 686 685 687 694
862 844 845 844 819 816 815 815 813 813 805 795 797 797 794 792 789 784 782 779 773 767 762 757 753 749 745 739 732 726 722 715 709 704 700 697 697 695 690 688 683 682 682 689
864 855 860 816 811 813 814 812 809 804 802 805 803 798 792 788 784 779 776 772 767 762 756 751 746 742 739 733 726 721 716 710 703 698 696 693 693 690 686 685 680 678 676 683
874 859 836 818 813 817 814 806 807 807 803 800 795 792 786 782 779 777 773 768 762 757 752 746 740 736 732 727 721 716 710 704 698 695 692 690 685 683 681 681 676 672 672 677
859 875 867 810 810 808 811 817 803 804 800 797 795 798 784 779 775 771 767 761 757 752 746 740 734 730 725 719 716 710 705 698 695 690 686 683 683 677 673 673 670 669 667 672
854 855 832 809 810 809 827 817 800 799 795 795 795 790 780 775 770 765 758 753 748 745 738 732 727 723 717 712 708 704 699 693 689 686 683 674 670 668 664 665 665 664 664 670
846 852 845 804 807 822 809 797 796 794 795 792 787 780 772 768 764 758 752 745 739 735 728 722 721 716 709 704 702 697 691 687 682 677 674 666 662 657 657 655 661 661 660 668
841 830 807 807 808 803 801 798 797 796 790 786 778 773 768 762 755 748 743 738 732 725 719 713 711 708 702 696 693 688 682 679 675 668 663 654 645 642 643 652 658 660 657 664
830 811 811 808 803 799 798 796 794 791 786 781 777 769 760 753 747 739 732 726 721 715 710 704 702 700 697 692 686 681 674 670 666 662 655 648 638 632 639 647 654 653 652 662
818 811 805 803 800 800 799 796 791 786 782 776 770 760 755 745 739 732 725 719 714 708 702 697 695 691 690 687 681 674 667 662 657 655 648 641 635 633 636 641 646 650 651 659
814 805 804 802 800 800 797 792 788 782 772 770 766 756 748 739 733 726 717 711 704 699 694 687 685 682 681 679 674 667 660 656 651 647 644 639 637 634 634 638 645 647 650 657
805 802 803 802 801 799 793 787 783 780 774 763 757 752 743 733 725 716 709 702 696 689 685 680 676 673 673 670 665 661 656 650 645 640 637 636 634 632 636 640 645 644 651 660
800 800 802 802 796 792 790 785 781 776 769 763 754 746 737 727 717 710 700 693 687 681 676 673 669 665 664 661 656 652 646 645 641 633 634 633 630 632 636 639 646 648 654 662
798 800 800 796 793 792 788 784 778 772 765 757 751 742 732 721 711 700 690 682 676 671 666 663 660 656 655 652 649 645 639 638 635 632 631 630 630 634 640 645 651 654 661 669
796 797 796 796 795 791 788 783 778 771 763 754 746 737 727 716 703 690 679 671 666 662 659 656 653 650 647 645 642 639 637 635 632 629 626 626 632 640 646 651 656 662 669 675
795 794 795 795 794 791 787 782 777 770 761 753 745 734 722 709 697 684 673 665 661 658 654 651 648 644 641 638 637 637 637 635 632 629 631 634 639 646 652 658 666 672 677 681
793 794 795 795 792 788 784 780 774 768 761 753 744 732 720 708 696 682 671 665 658 653 651 648 645 639 635 630 633 638 639 639 638 637 640 644 648 655 660 668 675 681 684 686
791 792 793 792 789 785 781 777 772 767 760 752 743 732 722 710 698 685 674 665 656 650 647 647 645 642 640 638 639 643 644 645 645 646 650 654 660 665 671 675 678 682 684 684
789 789 790 788 786 782 778 775 771 766 759 752 744 734 723 711 701 689 680 673 667 660 655 654 653 651 650 649 648 649 652 653 654 656 659 662 666 669 671 674 679 684 688 689
785 786 786 784 782 779 777 773 770 764 758 752 745 737 728 718 707 697 687 680 676 671 668 665 663 661 660 659 658 658 658 660 662 663 665 668 671 674 677 681 683 686 689 692
782 782 782 780 779 776 774 771 768 763 757 751 745 740 731 723 714 705 699 693 687 682 678 675 674 672 671 669 669 668 668 668 668 669 672 675 677 679 681 685 688 691 694 697
778 778 778 777 776 774 771 768 766 760 756 750 746 741 736 729 722 714 707 703 698 693 689 686 684 682 680 679 678 677 676 676 676 676 678 679 681 685 688 691 693 695 698 700
773 774 773 773 772 770 768 766 762 758 754 750 747 743 737 731 726 721 716 711 707 702 698 695 692 689 687 686 685 685 685 686 686 687 688 689 691 693 695 696 698 699 701 704
769 770 769 769 768 767 765 763 760 756 751 748 745 742 738 735 732 727 721 716 712 708 705 703 700 698 697 696 695 693 693 693 693 694 695 696 697 698 700 701 702 704 705 707
764 765 765 765 764 764 762 760 758 754 750 746 744 742 738 735 732 729 725 720 716 714 711 708 705 704 703 702 701 700 700 700 700 700 701 701 702 702 704 706 706 707 707 708
760 761 761 761 761 761 759 758 756 752 749 745 743 741 739 736 733 730 728 724 720 717 715 713 711 709 707 706 706 705 705 704 704 704 704 705 705 707 707 708 708 708 708 709